Total_Precipitation_Accumulation
2.18 2.39 2.39 2.41 2.48 2.55 2.38 2.11 2.01 2.01 2.07 2.14 2.32 2.39 2.34 2.39 2.52 2.59 2.55 2.86 3.00 3.03 3.02 3.01 2.98 3.14 3.13 3.00 3.10 3.29 3.57 3.67 3.26 2.68 2.55 2.49 2.49 2.37 2.38 2.25 2.12 2.08 1.87
2.12 2.33 2.39 2.37 2.41 2.45 2.30 2.10 2.04 2.06 2.11 2.11 2.23 2.28 2.18 2.20 2.42 2.44 2.48 2.76 2.93 2.82 2.83 2.84 2.63 2.71 2.81 2.67 2.81 2.89 3.04 3.30 3.20 2.84 2.76 2.71 2.68 2.57 2.54 2.48 2.25 2.02 1.75
2.07 2.36 2.52 2.56 2.52 2.43 2.23 1.97 1.87 1.85 1.94 1.98 2.02 2.05 2.11 2.26 2.37 2.37 2.39 2.38 2.40 2.47 2.70 2.83 2.61 2.60 2.53 2.55 2.58 2.56 2.63 2.73 2.98 2.89 2.74 2.79 2.71 2.71 2.62 2.39 2.22 2.12 1.75
1.99 2.19 2.32 2.21 2.14 2.11 1.98 1.81 1.73 1.73 1.77 1.84 1.92 2.02 2.10 2.17 2.23 2.32 2.39 2.30 2.26 2.30 2.44 2.52 2.50 2.46 2.40 2.51 2.44 2.45 2.52 2.68 2.82 2.87 2.76 2.86 2.84 2.79 2.82 2.59 2.56 2.40 2.17
1.63 1.73 1.87 1.84 1.79 1.77 1.82 1.85 1.84 1.88 1.83 1.90 1.98 2.00 1.99 1.98 1.91 1.98 2.08 2.09 2.22 2.16 2.07 2.08 2.10 2.14 2.13 2.18 2.04 2.23 2.49 2.65 2.71 2.72 2.72 2.90 3.04 3.07 2.89 2.81 2.84 2.77 2.54
1.34 1.45 1.68 1.79 1.80 1.79 1.85 1.97 1.98 1.94 1.93 1.97 1.92 1.97 1.97 1.70 1.88 1.94 1.94 2.03 2.11 2.12 2.04 1.92 1.81 1.81 1.75 1.76 1.72 1.82 2.13 2.37 2.52 2.67 2.65 2.76 2.98 3.17 3.28 3.23 3.09 2.96 2.87
1.41 1.56 1.75 1.86 1.93 1.94 1.91 2.04 1.99 1.99 2.07 2.03 1.95 1.96 1.98 2.04 2.10 1.93 1.79 1.76 1.86 1.92 1.89 1.86 1.63 1.54 1.72 1.70 1.75 1.73 1.76 1.93 2.09 2.33 2.43 2.38 2.58 2.89 3.18 3.07 3.23 3.28 3.17
1.68 1.87 1.97 2.09 2.04 2.01 2.02 2.06 2.15 2.23 2.27 2.25 2.18 2.10 2.08 2.06 2.06 1.86 1.85 1.77 1.77 1.78 1.79 1.83 1.82 1.73 1.79 1.93 1.90 1.82 1.71 1.67 1.77 1.85 1.96 2.10 2.34 2.69 2.98 2.95 3.03 3.14 3.14
1.82 1.92 2.07 2.18 2.22 2.23 2.24 2.23 2.32 2.45 2.40 2.32 2.25 2.27 2.22 2.22 2.29 2.09 2.12 1.96 1.94 1.94 1.97 1.97 1.95 1.85 2.00 1.96 1.85 1.83 1.79 1.78 1.85 1.94 1.89 1.98 2.21 2.36 2.57 2.69 2.67 2.74 2.66
1.79 1.90 2.08 2.32 2.38 2.40 2.55 2.66 2.62 2.58 2.44 2.44 2.43 2.40 2.39 2.42 2.66 2.48 2.31 2.14 2.13 2.12 2.22 2.20 2.23 2.08 2.08 2.01 1.85 1.86 1.88 1.90 2.01 1.97 1.93 1.88 1.90 2.13 2.39 2.43 2.62 2.82 2.68
1.82 1.97 2.16 2.34 2.44 2.52 2.71 2.80 2.78 2.72 2.70 2.65 2.58 2.60 2.58 2.57 2.75 2.51 2.30 2.16 2.21 2.35 2.35 2.26 2.32 2.34 2.13 2.14 2.08 1.98 1.96 1.98 1.96 1.99 1.99 1.96 1.97 2.08 2.20 2.33 2.61 2.81 2.78
1.78 1.93 2.06 2.21 2.23 2.32 2.62 2.72 2.83 2.88 2.83 2.73 2.66 2.52 2.53 2.51 2.43 2.30 2.19 2.15 2.25 2.38 2.45 2.39 2.35 2.35 2.12 2.04 1.90 1.86 1.91 1.81 1.72 1.83 1.85 1.87 1.89 1.90 1.99 2.21 2.44 2.53 2.57
1.89 2.02 2.16 2.24 2.28 2.38 2.51 2.56 2.66 2.75 2.71 2.57 2.58 2.52 2.45 2.44 2.43 2.19 1.97 1.94 2.00 2.04 2.19 2.35 2.28 2.17 1.98 1.79 1.74 1.70 1.60 1.48 1.49 1.55 1.55 1.56 1.64 1.73 1.84 1.99 2.21 2.33 2.32
1.99 2.06 2.15 2.26 2.24 2.33 2.46 2.57 2.68 2.77 2.85 2.73 2.58 2.46 2.44 2.40 2.29 2.11 1.92 1.84 1.95 2.06 2.16 2.23 2.11 2.00 1.81 1.66 1.58 1.49 1.43 1.49 1.52 1.50 1.53 1.63 1.71 1.75 1.76 1.80 1.95 2.09 2.11
1.93 2.01 2.04 2.08 2.17 2.29 2.36 2.47 2.45 2.52 2.55 2.52 2.43 2.39 2.38 2.30 2.16 2.08 1.89 1.78 1.90 2.08 2.15 2.15 2.01 1.95 1.84 1.73 1.66 1.60 1.58 1.61 1.56 1.54 1.59 1.59 1.60 1.68 1.66 1.67 1.79 1.82 1.77
1.99 2.03 1.98 1.92 2.00 2.07 2.16 2.18 2.20 2.09 2.07 2.02 2.01 1.98 1.91 1.82 1.72 1.60 1.58 1.59 1.69 1.86 1.87 1.93 2.03 2.00 1.93 1.84 1.74 1.66 1.61 1.58 1.54 1.57 1.63 1.63 1.60 1.60 1.65 1.62 1.69 1.74 1.65
1.91 1.96 1.95 1.94 1.97 1.97 2.06 2.02 2.05 1.98 1.88 1.78 1.72 1.73 1.76 1.72 1.65 1.63 1.65 1.69 1.67 1.73 1.66 1.77 1.90 1.89 1.87 1.81 1.68 1.56 1.52 1.54 1.64 1.63 1.64 1.65 1.69 1.69 1.73 1.71 1.70 1.76 1.71
1.65 1.74 1.87 1.96 2.00 2.01 2.07 2.13 2.20 2.23 2.11 1.89 1.75 1.69 1.62 1.59 1.53 1.57 1.64 1.61 1.53 1.54 1.57 1.71 1.79 1.76 1.73 1.68 1.63 1.57 1.57 1.61 1.70 1.66 1.66 1.69 1.72 1.72 1.73 1.74 1.71 1.69 1.71
1.56 1.58 1.60 1.68 1.80 1.89 1.91 1.96 2.03 2.12 2.15 2.04 1.88 1.81 1.75 1.65 1.53 1.48 1.44 1.29 1.34 1.48 1.63 1.68 1.72 1.72 1.61 1.54 1.52 1.47 1.49 1.57 1.65 1.72 1.69 1.75 1.78 1.81 1.79 1.74 1.77 1.80 1.72
1.59 1.62 1.57 1.54 1.54 1.61 1.68 1.76 1.86 1.99 2.07 2.05 1.98 1.88 1.81 1.69 1.41 1.31 1.23 1.18 1.26 1.34 1.44 1.47 1.51 1.49 1.40 1.41 1.46 1.44 1.41 1.50 1.61 1.67 1.66 1.72 1.79 1.79 1.71 1.68 1.68 1.70 1.62
1.59 1.58 1.57 1.55 1.56 1.60 1.66 1.73 1.76 1.82 1.88 1.83 1.74 1.67 1.61 1.42 1.28 1.19 1.17 1.21 1.27 1.32 1.38 1.44 1.44 1.38 1.36 1.42 1.49 1.52 1.48 1.53 1.62 1.64 1.67 1.72 1.79 1.81 1.72 1.68 1.65 1.68 1.69
1.60 1.51 1.46 1.47 1.55 1.61 1.67 1.75 1.79 1.78 1.73 1.64 1.58 1.49 1.46 1.30 1.23 1.24 1.25 1.26 1.30 1.40 1.42 1.43 1.45 1.42 1.39 1.43 1.51 1.58 1.61 1.61 1.64 1.66 1.63 1.66 1.75 1.79 1.83 1.79 1.78 1.79 1.82
1.70 1.59 1.53 1.52 1.55 1.58 1.58 1.64 1.69 1.66 1.60 1.50 1.41 1.36 1.32 1.29 1.26 1.32 1.37 1.42 1.46 1.44 1.39 1.37 1.38 1.37 1.37 1.40 1.39 1.46 1.58 1.63 1.63 1.63 1.69 1.73 1.72 1.70 1.73 1.69 1.69 1.72 1.74
1.74 1.65 1.55 1.48 1.48 1.51 1.55 1.63 1.64 1.58 1.49 1.44 1.42 1.42 1.39 1.40 1.36 1.36 1.42 1.50 1.45 1.33 1.25 1.24 1.26 1.25 1.29 1.36 1.35 1.35 1.40 1.53 1.54 1.50 1.51 1.57 1.61 1.62 1.68 1.67 1.66 1.66 1.73
1.76 1.73 1.60 1.49 1.48 1.48 1.50 1.57 1.59 1.56 1.50 1.42 1.40 1.44 1.49 1.54 1.48 1.42 1.41 1.40 1.33 1.24 1.15 1.20 1.24 1.22 1.23 1.25 1.28 1.30 1.40 1.44 1.40 1.38 1.38 1.45 1.51 1.58 1.66 1.68 1.69 1.68 1.71
1.58 1.51 1.42 1.35 1.33 1.38 1.45 1.52 1.55 1.59 1.61 1.56 1.54 1.55 1.51 1.49 1.44 1.37 1.34 1.34 1.33 1.25 1.18 1.21 1.24 1.22 1.25 1.25 1.19 1.21 1.22 1.14 1.15 1.24 1.20 1.24 1.41 1.53 1.61 1.69 1.70 1.73 1.72